Wind_Speed
118 118 119 120 120 121 123 126 128 129 131 132 133 132 129 125 123 118 118 114 112 104 107 108 112 115 117 119 124 127 130 131 128 119 113 99 100 105 104 97 91 86 80
129 128 126 125 126 128 128 131 133 133 130 128 125 124 122 121 122 119 112 110 112 112 111 113 113 114 116 122 125 121 124 125 117 104 105 104 104 103 99 92 84 79 78
124 124 124 122 124 124 120 115 111 110 110 110 110 110 111 112 113 114 115 116 116 115 116 117 118 118 120 122 123 120 113 107 109 108 105 99 92 87 86 80 76 68 63
110 110 112 113 112 112 112 112 112 113 113 113 115 115 116 116 117 119 122 122 121 120 118 117 118 119 118 116 111 107 108 108 107 96 84 74 69 65 61 62 55 49 48
112 113 113 114 115 117 118 117 118 118 118 119 120 121 121 122 122 122 120 118 117 117 117 116 114 111 109 110 110 110 106 96 85 72 61 54 54 53 50 47 42 39 36
97 99 100 104 106 106 108 108 108 110 112 113 113 115 115 116 115 114 114 114 114 113 111 112 114 114 109 102 96 88 81 71 64 60 53 47 45 41 39 36 34 31 29
94 92 92 92 93 94 96 97 99 101 103 105 107 108 109 111 109 108 107 107 110 112 107 99 93 89 85 80 75 69 64 60 56 49 45 41 37 37 34 36 32 26 26
74 82 87 89 89 88 87 88 91 92 94 96 98 98 99 101 101 102 102 95 89 86 82 78 75 74 72 69 65 62 59 55 49 44 41 40 39 41 39 38 34 32 30
53 57 60 62 64 67 71 75 77 80 85 88 91 93 96 95 88 83 80 77 75 73 72 71 70 70 70 68 65 62 59 57 54 50 43 44 44 44 45 41 41 36 35
48 52 55 58 63 68 72 76 79 81 85 86 82 73 69 70 70 69 68 68 68 69 71 72 72 70 69 68 66 65 64 63 59 56 52 50 49 49 50 46 46 40 40
53 56 59 62 66 70 73 74 73 68 60 55 56 56 56 58 62 62 64 65 67 70 72 74 75 72 71 70 68 67 66 64 61 59 58 55 55 55 56 55 52 48 46
55 59 64 68 68 64 58 52 46 44 43 42 44 48 51 55 60 65 67 68 69 69 69 69 70 69 67 67 66 66 68 69 70 68 66 63 62 60 59 59 59 57 54
61 66 68 61 51 44 38 35 32 31 31 34 40 48 56 60 65 65 66 65 62 60 58 57 57 58 56 55 55 56 57 60 64 66 67 66 64 66 65 64 64 60 57
67 65 53 42 35 31 28 24 22 25 29 35 42 49 56 61 64 62 60 59 58 54 50 47 46 45 44 42 42 41 43 45 48 52 54 56 57 57 60 64 66 63 61
57 47 36 30 26 21 17 16 19 25 32 38 44 48 53 58 57 54 51 50 52 51 48 44 42 40 37 35 33 32 32 32 34 37 38 40 41 43 44 48 53 56 59
41 33 26 22 18 15 14 16 22 27 31 36 42 45 51 52 51 48 44 43 43 42 41 40 38 34 31 29 26 24 23 23 24 25 26 28 29 30 32 35 39 44 44
31 27 23 19 15 15 17 22 23 24 27 33 39 44 50 54 51 45 40 40 38 37 35 34 32 28 25 21 19 18 17 16 17 18 20 20 22 24 27 28 28 30 35
27 24 21 16 16 17 20 22 23 25 28 31 38 45 51 55 52 45 40 39 37 34 33 30 26 20 17 16 14 13 12 11 11 12 14 16 17 19 22 24 27 29 32
25 23 20 18 18 17 18 19 20 22 28 33 38 43 50 57 55 47 42 40 38 35 31 24 20 16 14 11 7 4 4 4 6 8 10 12 15 18 22 24 27 31 36
26 24 21 21 19 16 16 18 20 22 26 31 37 42 50 56 58 50 43 43 41 37 31 24 19 14 10 9 7 3 1 2 5 7 9 12 17 19 21 23 26 34 34
28 26 23 24 20 16 17 18 20 23 24 28 33 41 48 54 59 53 42 41 40 38 37 34 25 19 14 9 7 4 5 6 6 7 10 14 17 23 24 25 28 31 32
30 28 26 25 23 19 17 19 20 24 25 26 30 37 43 48 55 57 42 38 37 36 35 34 31 28 22 15 10 6 5 8 10 10 12 16 18 21 26 28 28 28 30
33 31 28 25 24 19 19 20 21 24 26 24 27 32 39 42 49 56 47 35 32 31 30 30 33 30 25 20 17 14 10 8 9 11 15 17 19 21 24 26 27 27 29
35 31 30 27 24 22 21 21 22 24 24 24 25 29 33 38 44 51 56 40 29 25 26 25 24 26 25 23 23 21 20 16 12 11 15 19 22 22 24 25 25 29 30
36 32 32 30 25 24 22 21 22 22 23 23 23 25 28 34 38 44 50 54 34 25 19 21 19 22 18 21 22 24 24 21 19 16 15 19 25 26 27 26 28 30 30
38 34 33 31 28 27 25 22 22 21 21 22 21 22 25 30 35 38 42 46 50 33 23 15 17 15 13 13 15 18 22 25 26 29 30 32 31 30 29 26 25 26 25
Wind_Direction
259 261 263 265 267 268 270 272 273 275 276 277 278 280 281 283 284 284 285 285 289 285 286 286 284 282 281 282 287 288 288 290 291 291 292 292 293 292 290 288 285 280 275
263 266 268 269 270 272 274 275 277 279 279 279 278 281 280 281 282 287 286 283 284 284 284 285 285 284 284 285 287 288 289 291 292 292 292 291 289 286 284 281 279 275 270
265 265 267 269 271 273 274 275 277 278 278 279 280 280 280 280 282 283 284 285 286 286 286 285 284 284 283 283 284 286 287 287 289 292 291 290 286 283 280 277 273 272 268
263 265 267 268 271 272 274 275 276 278 278 279 280 282 283 283 284 283 284 285 286 285 285 284 283 283 284 286 287 288 289 290 291 291 288 285 282 279 276 271 272 269 266
262 265 267 268 270 271 272 273 273 274 276 278 280 282 283 284 284 286 286 286 286 286 286 287 287 287 287 288 289 289 290 291 289 288 287 284 277 273 269 268 267 266 261
265 266 267 268 271 273 274 275 277 278 279 280 281 282 284 285 286 287 287 289 290 290 290 291 291 290 288 287 287 287 288 288 289 289 287 283 278 272 266 261 253 249 248
265 267 270 272 275 277 277 277 278 279 281 282 283 285 286 287 289 290 290 291 291 290 290 289 288 288 287 287 287 287 286 284 283 280 279 275 269 261 257 251 248 247 250
264 266 269 271 274 276 277 278 279 280 281 283 285 287 288 289 290 290 290 290 289 289 290 289 289 289 288 287 286 284 281 279 275 275 273 265 255 251 249 250 251 250 249
272 273 274 275 277 278 279 281 283 284 285 286 286 287 288 289 290 289 291 293 293 292 291 290 288 286 286 285 283 281 278 276 275 275 270 265 260 254 251 250 250 249 252
276 277 280 282 283 283 283 283 285 285 284 285 288 288 288 289 292 294 293 292 290 289 287 285 283 281 279 277 276 275 273 272 271 270 267 261 258 259 259 255 253 250 252
284 285 284 283 284 284 284 284 285 287 288 289 289 290 291 292 295 297 294 292 290 289 288 287 286 284 280 277 274 271 269 268 267 265 262 259 256 252 253 255 255 256 257
287 290 291 291 292 291 289 289 289 288 289 290 294 297 300 303 302 299 298 298 296 294 291 289 287 284 281 278 275 270 267 266 264 262 260 257 255 253 250 248 248 249 252
295 297 298 296 293 290 288 288 288 286 295 302 304 306 310 311 307 306 306 305 301 297 293 290 288 286 284 282 278 273 268 263 260 258 257 256 254 253 249 247 246 244 245
301 300 297 292 288 285 283 282 289 299 300 303 308 314 317 313 312 314 314 313 312 309 305 301 297 293 289 286 282 276 269 265 260 258 257 256 256 255 251 246 245 245 245
300 296 288 283 276 270 276 287 292 297 304 310 315 319 327 327 322 319 317 314 314 314 312 310 305 300 295 291 285 278 270 264 259 256 255 254 251 249 246 243 241 240 240
295 283 273 264 259 267 271 279 296 302 309 314 316 325 333 334 330 325 322 322 319 316 315 314 309 303 297 292 285 278 270 260 254 252 249 247 244 241 238 235 232 231 230
278 264 257 252 260 263 272 281 285 293 304 315 325 333 342 344 339 334 332 329 325 324 324 318 310 307 298 291 283 274 264 257 252 246 241 237 231 227 225 223 220 213 210
262 250 242 248 253 264 277 290 298 312 317 330 337 342 350 353 348 343 341 341 338 335 332 333 322 317 311 296 286 279 266 255 245 235 227 219 214 213 210 203 199 199 195
243 230 237 243 250 264 284 295 310 326 339 341 343 347 356 358 355 352 351 351 351 348 345 341 340 339 339 333 318 297 257 223 215 212 207 201 195 191 193 193 189 181 176
223 229 235 241 250 265 286 300 326 334 341 345 345 351 357 1 2 359 358 357 358 358 1 6 7 2 10 13 5 3 103 144 157 165 172 175 175 176 179 179 177 173 171
221 229 233 242 250 263 278 303 323 332 337 343 344 350 356 0 5 3 2 359 359 360 4 10 20 23 33 48 48 45 84 91 116 139 152 159 161 161 163 166 167 170 171
222 228 232 241 249 259 278 298 318 328 330 339 343 348 354 359 7 10 5 2 360 0 8 14 21 35 42 47 52 51 89 112 123 134 143 153 156 162 166 167 167 171 174
223 227 232 240 252 262 279 293 313 326 328 332 341 349 354 1 10 14 9 8 360 359 8 19 21 30 39 41 57 66 78 109 134 149 154 156 162 167 169 171 170 175 183
223 228 234 240 249 264 278 296 313 323 328 330 337 348 357 5 12 15 16 11 5 358 1 13 25 26 26 44 61 69 79 88 107 147 166 167 164 165 170 171 175 179 188
223 228 236 241 249 263 278 294 309 318 326 331 337 347 355 1 7 12 15 17 14 1 352 354 10 20 48 57 62 73 89 94 99 100 116 149 165 161 164 169 172 179 192
225 231 239 245 251 262 274 285 298 305 317 326 334 340 348 355 1 7 11 14 18 14 0 346 359 8 30 68 68 80 91 96 99 102 107 115 131 143 155 163 173 182 188
Height
10720 10720 10722 10725 10723 10722 10719 10718 10717 10716 10715 10711 10707 10704 10700 10694 10692 10692 10685 10680 10677 10672 10664 10659 10652 10645 10639 10630 10622 10614 10606 10596 10591 10602 10594 10583 10579 10571 10565 10572 10577 10579 10579
10702 10701 10701 10699 10697 10697 10698 10693 10696 10697 10693 10689 10685 10681 10675 10670 10666 10661 10656 10652 10650 10646 10641 10634 10629 10621 10611 10601 10592 10585 10578 10568 10561 10566 10565 10561 10552 10545 10538 10538 10543 10546 10548
10685 10680 10677 10674 10676 10678 10677 10677 10673 10668 10665 10660 10656 10652 10648 10644 10641 10634 10631 10627 10621 10616 10610 10603 10595 10590 10584 10576 10572 10564 10555 10547 10540 10537 10535 10522 10515 10510 10506 10508 10511 10519 10522
10659 10656 10656 10659 10661 10659 10656 10654 10649 10645 10640 10636 10631 10627 10622 10618 10613 10607 10602 10598 10594 10588 10580 10574 10565 10556 10549 10543 10536 10531 10525 10519 10511 10505 10501 10494 10487 10482 10485 10484 10491 10497 10502
10640 10643 10644 10642 10640 10638 10637 10633 10630 10625 10620 10617 10611 10605 10598 10591 10585 10582 10576 10570 10561 10553 10544 10536 10528 10521 10515 10510 10506 10499 10494 10489 10482 10477 10474 10473 10468 10468 10469 10471 10477 10482 10485
10627 10626 10623 10620 10620 10617 10614 10612 10606 10601 10596 10591 10585 10579 10572 10563 10558 10553 10547 10538 10526 10516 10507 10499 10493 10487 10481 10478 10474 10472 10467 10464 10460 10457 10455 10455 10453 10455 10456 10461 10466 10471 10475
10609 10606 10604 10603 10601 10597 10594 10589 10584 10579 10573 10566 10560 10555 10549 10539 10533 10524 10516 10507 10497 10486 10476 10467 10460 10455 10452 10451 10450 10448 10446 10445 10445 10444 10444 10444 10444 10443 10447 10451 10457 10464 10466
10590 10589 10588 10587 10583 10579 10573 10567 10563 10559 10552 10545 10539 10531 10523 10514 10508 10500 10491 10481 10469 10459 10452 10445 10439 10431 10429 10429 10429 10429 10429 10429 10430 10431 10433 10433 10435 10433 10437 10441 10446 10451 10455
10576 10575 10573 10570 10566 10560 10555 10548 10544 10541 10531 10525 10518 10512 10502 10489 10482 10473 10467 10459 10449 10440 10432 10425 10420 10414 10409 10408 10409 10409 10409 10409 10411 10416 10420 10420 10421 10423 10425 10432 10434 10440 10444
10565 10562 10559 10556 10551 10544 10538 10532 10527 10522 10513 10506 10498 10490 10481 10471 10464 10457 10452 10443 10433 10424 10412 10404 10398 10395 10391 10389 10389 10389 10390 10389 10395 10398 10402 10405 10407 10408 10411 10417 10420 10428 10432
10551 10548 10544 10538 10534 10528 10521 10516 10508 10499 10493 10487 10479 10474 10468 10461 10451 10443 10432 10424 10414 10403 10392 10381 10374 10370 10368 10366 10366 10367 10367 10369 10372 10375 10379 10384 10388 10393 10397 10401 10407 10413 10418
10537 10531 10525 10518 10513 10506 10499 10495 10491 10485 10482 10477 10469 10461 10456 10448 10438 10424 10412 10402 10392 10382 10370 10360 10351 10344 10342 10340 10339 10341 10342 10345 10346 10349 10354 10359 10366 10373 10380 10386 10390 10397 10402
10519 10512 10505 10499 10493 10489 10486 10484 10482 10478 10473 10468 10461 10452 10441 10431 10418 10407 10393 10380 10369 10359 10349 10340 10330 10323 10319 10317 10316 10315 10316 10318 10319 10322 10327 10334 10343 10348 10356 10363 10368 10378 10387
10501 10494 10488 10484 10482 10480 10479 10477 10474 10471 10467 10462 10453 10445 10432 10417 10401 10388 10373 10360 10347 10337 10329 10321 10313 10306 10302 10299 10297 10295 10295 10296 10299 10302 10307 10313 10320 10327 10332 10339 10347 10358 10366
10486 10479 10476 10475 10474 10474 10472 10471 10469 10466 10460 10453 10445 10436 10422 10404 10388 10374 10362 10348 10335 10323 10313 10305 10298 10293 10289 10285 10283 10282 10281 10282 10284 10288 10292 10297 10302 10307 10313 10319 10327 10338 10347
10473 10469 10469 10469 10468 10468 10468 10467 10463 10460 10454 10447 10440 10428 10414 10398 10381 10365 10351 10338 10327 10315 10305 10296 10289 10284 10280 10277 10275 10273 10273 10273 10275 10278 10281 10285 10289 10294 10300 10306 10313 10322 10333
10462 10462 10463 10463 10462 10462 10461 10461 10460 10456 10450 10442 10431 10420 10406 10390 10372 10356 10342 10330 10319 10309 10299 10291 10284 10278 10273 10271 10269 10268 10267 10267 10269 10271 10274 10278 10282 10287 10292 10298 10305 10314 10323
10454 10455 10456 10457 10457 10457 10456 10454 10450 10445 10440 10433 10424 10412 10398 10383 10365 10349 10335 10324 10313 10304 10295 10287 10281 10274 10270 10267 10265 10264 10264 10264 10265 10267 10269 10273 10277 10282 10288 10294 10301 10309 10318
10446 10448 10450 10451 10452 10452 10450 10448 10444 10438 10432 10425 10418 10408 10395 10379 10361 10345 10332 10321 10310 10301 10293 10286 10279 10273 10270 10267 10265 10264 10263 10263 10264 10266 10268 10271 10275 10280 10286 10292 10299 10308 10319
10439 10441 10444 10445 10446 10446 10444 10441 10438 10433 10428 10421 10413 10402 10391 10377 10361 10346 10332 10321 10311 10302 10294 10287 10279 10273 10270 10268 10267 10266 10265 10265 10266 10268 10270 10273 10277 10282 10287 10294 10303 10312 10321
10432 10435 10437 10438 10439 10439 10438 10435 10432 10428 10424 10417 10410 10400 10389 10377 10362 10347 10334 10323 10314 10305 10295 10288 10282 10276 10272 10270 10269 10269 10268 10269 10270 10272 10275 10278 10281 10285 10293 10300 10309 10317 10325
10424 10427 10429 10431 10432 10433 10431 10429 10427 10423 10419 10414 10407 10399 10390 10379 10366 10352 10337 10327 10318 10311 10303 10295 10288 10281 10278 10275 10273 10273 10273 10273 10275 10277 10280 10284 10289 10293 10298 10305 10313 10321 10328
10416 10419 10422 10424 10426 10426 10425 10424 10421 10418 10414 10410 10405 10398 10390 10381 10369 10356 10342 10333 10324 10317 10311 10304 10298 10292 10288 10284 10280 10278 10278 10278 10280 10282 10285 10289 10294 10300 10306 10311 10318 10325 10332
10409 10412 10415 10417 10419 10419 10419 10418 10417 10414 10410 10406 10402 10396 10389 10381 10372 10362 10351 10338 10331 10323 10317 10313 10310 10304 10299 10295 10292 10289 10287 10285 10285 10286 10288 10292 10297 10304 10311 10318 10323 10329 10335
10401 10405 10407 10410 10412 10412 10413 10413 10411 10409 10406 10402 10399 10394 10388 10382 10374 10366 10357 10348 10337 10330 10325 10320 10317 10314 10313 10307 10304 10302 10300 10298 10295 10293 10293 10296 10301 10307 10314 10320 10326 10331 10337
10393 10396 10399 10402 10405 10406 10407 10407 10406 10404 10401 10398 10395 10392 10387 10382 10375 10369 10362 10353 10345 10336 10332 10328 10324 10321 10320 10320 10317 10315 10313 10311 10310 10306 10305 10306 10309 10314 10319 10325 10330 10336 10340